Flag for Germany Weather past 2 weeks in Neuruppin, Brandenburg, Germany

Now
67 °F

Overcast.


Feels Like: 67 °F
Forecast: 51 / 68 °F
Wind: 1 mph from South

Location: Neuruppin

Current Time: Oct 2, 2014 at 4:53:16 PM

Latest Report: Oct 2, 2014 at 4:00 PM


Visibility: 7 mi

Pressure: 30.39 "Hg

Humidity: 73%

Dew point: 58 °F

Location of NeuruppinLocation

Historic Weather in Neuruppin — Graph

°F

Neuruppin temperature yesterday

Maximum temperature yesterday: 67 °F (at 4:00 PM)
Minimum temperature yesterday: 54 °F (at 8:00 AM)
Average temperature yesterday: 59 °F

Past Weeks' High & Low Weather Summary

 TemperatureHumidityPressure
High73 °F (Sep 17, 5:00 PM)99% (Sep 21, 8:00 AM)30.40 "Hg (Sep 21, 8:00 AM)
Low43 °F (Sep 28, 7:00 AM)52% (Sep 18, 4:00 PM)29.78 "Hg (Sep 22, 9:00 AM)
Average58 °F84%30.08 "Hg
* Reported Sep 17 3:00 PM — Oct 2 3:00 PM, Neuruppin, Weather by CustomWeather, © 2014

Note: Actual official high and low records may vary slightly from our data, if they occured in-between our weather recording intervals... More about our weather records

Advertising

Neuruppin weather history for previous 24 hours

 ConditionsComfort  
Time TempWeatherWind HumidityBarometerVisibility
3:00 PM
Oct 2
68 °FOvercast.1 mph69%30.39 "Hg6 mi
2:00 PM67 °FOvercast.1 mph73%30.40 "Hg6 mi
1:00 PM65 °FOvercast.1 mph79%30.40 "Hg6 mi
12:00 PM63 °FOvercast.1 mph82%30.40 "Hg6 mi
11:00 AM61 °FOvercast.1 mph93%30.40 "Hg4 mi
10:00 AM58 °FOvercast.No wind96%30.40 "Hg2 mi
9:00 AM56 °FOvercast.1 mph98%30.39 "Hg2 mi
8:00 AM54 °FOvercast.1 mph99%30.38 "Hg1 mi
7:00 AM54 °FOvercast.No wind99%30.37 "Hg1 mi
6:00 AM54 °FPassing clouds.No wind97%30.37 "Hg1 mi
5:00 AM55 °FOvercast.No wind96%30.36 "Hg1 mi
4:00 AM57 °FOvercast.1 mph97%30.37 "Hg1 mi
3:00 AM57 °FOvercast.No wind97%30.36 "Hg1 mi
2:00 AM57 °FOvercast.No wind97%30.36 "Hg1 mi
1:00 AM56 °FOvercast.1 mph98%30.36 "Hg1 mi
12:00 AM55 °FOvercast.No wind98%30.35 "Hg1 mi
10:00 PM
Oct 1
56 °FOvercast.No wind97%30.34 "Hg2 mi
9:00 PM55 °FClear.No wind94%30.34 "Hg2 mi
8:00 PM57 °FClear.No wind92%30.33 "Hg4 mi
7:00 PM60 °FClear.1 mph86%30.32 "Hg6 mi
6:00 PM65 °FSunny.1 mph72%30.31 "Hg6 mi
4:00 PM67 °FSunny.2 mph67%30.30 "Hg6 mi
Weather by CustomWeather, © 2014

See weather overviewHow to use our weather pages